FW6835 Weather Reports


Display with metric or nautical units.
time (UTC)temp
F
wind
direction
speed
MPH
gust
MPH
rain 1hr
in
rain 24hr
in
rain mn
in
humidity
%
barometer
mb
20260905070032 55 237 3.0 7.0 0.00 0.24 0.03 95 1018.0
20260905065530 55 268 1.0 6.0 0.00 0.24 0.03 96 1018.1
20260905065034 55 258 1.0 5.0 0.00 0.24 0.03 96 1018.1
20260905064530 55 240 1.0 9.0 0.00 0.24 0.03 97 1017.9
20260905064029 54 207 2.0 9.0 0.00 0.24 0.03 96 1018.0
20260905063531 55 213 2.0 7.0 0.00 0.24 0.03 97 1018.0
20260905063028 54 251 0.0 5.0 0.00 0.24 0.03 97 1017.9
20260905062526 54 259 1.0 6.0 0.00 0.24 0.03 97 1018.0
20260905062030 54 233 1.0 6.0 0.00 0.24 0.03 97 1017.9
20260905061526 54 240 1.0 5.0 0.00 0.24 0.03 97 1017.8
20260905061026 54 245 1.0 5.0 0.00 0.24 0.03 97 1017.7
20260905060524 54 242 1.0 5.0 0.00 0.24 0.03 97 1017.6
20260905060024 54 295 1.0 6.0 0.00 0.24 0.03 97 1017.4
20260905055522 54 215 2.0 6.0 0.00 0.24 0.03 97 1017.6
20260905055022 54 235 3.0 11.0 0.00 0.24 0.03 97 1017.5
20260905054522 54 250 5.0 11.0 0.00 0.24 0.03 97 1017.5
20260905054021 54 234 2.0 8.0 0.00 0.24 0.03 97 1017.4
20260905053520 54 259 2.0 7.0 0.00 0.24 0.03 97 1017.2
20260905053020 54 301 1.0 7.0 0.00 0.24 0.03 98 1017.3
20260905052517 54 232 2.0 9.0 0.00 0.24 0.03 98 1017.1
20260905052017 54 254 3.0 8.0 0.00 0.24 0.03 98 1017.0
20260905051517 54 233 1.0 7.0 0.00 0.24 0.03 98 1016.9
20260905051015 54 232 1.0 6.0 0.00 0.24 0.03 98 1016.8
20260905050518 54 209 1.0 8.0 0.00 0.24 0.03 98 1016.8
20260905050017 54 235 1.0 8.0 0.00 0.24 0.03 98 1016.7
20260905045514 54 188 0.0 7.0 0.00 0.24 0.03 98 1016.7
20260905045013 54 169 2.0 7.0 0.00 0.24 0.03 98 1016.6
20260905044512 54 261 0.0 7.0 0.00 0.24 0.03 98 1016.5
20260905044011 54 217 2.0 5.0 0.00 0.24 0.03 98 1016.6
20260905043513 54 250 2.0 5.0 0.00 0.24 0.03 98 1016.5
20260905043014 54 219 0.0 4.0 0.00 0.24 0.03 98 1016.5
20260905042513 54 227 2.0 6.0 0.00 0.24 0.03 98 1016.3
20260905042010 54 246 2.0 6.0 0.00 0.24 0.03 98 1016.5
20260905041509 54 192 0.0 4.0 0.00 0.24 0.03 98 1016.4
20260905041008 54 211 1.0 4.0 0.00 0.24 0.03 98 1016.4
20260905040508 54 205 0.0 7.0 0.00 0.24 0.03 98 1016.4
20260905040011 54 179 2.0 8.0 0.00 0.24 0.03 98 1016.2
20260905035506 54 241 1.0 7.0 0.00 0.24 0.03 97 1016.2
20260905035006 54 207 2.0 8.0 0.00 0.24 0.03 98 1016.3
20260905034506 54 221 2.0 8.0 0.00 0.24 0.03 98 1016.1
20260905034004 54 328 3.0 7.0 0.00 0.24 0.03 98 1015.8
20260905033503 54 281 1.0 7.0 0.00 0.24 0.03 98 1015.9
20260905033010 54 206 3.0 7.0 0.00 0.24 0.03 98 1015.9
20260905032502 54 264 0.0 7.0 0.00 0.24 0.03 98 1015.9
20260905032003 54 254 2.0 6.0 0.00 0.24 0.03 98 1015.5
20260905031504 54 246 1.0 6.0 0.00 0.24 0.03 98 1015.6
20260905031001 55 243 1.0 6.0 0.00 0.24 0.03 98 1015.6
20260905030502 55 292 2.0 10.0 0.00 0.24 0.03 98 1015.5
20260905030004 55 161 2.0 10.0 0.00 0.24 0.03 98 1015.6
20260905025600 55 252 1.0 3.0 0.00 0.24 0.03 98 1015.6
20260905025100 55 223 0.0 3.0 0.00 0.24 0.03 98 1015.3
20260905024600 55 201 0.0 4.0 0.00 0.24 0.03 98 1015.4
20260905024059 55 255 1.0 9.0 0.00 0.24 0.03 98 1015.5
20260905023559 55 230 1.0 9.0 0.00 0.24 0.03 98 1015.6
20260905023127 55 265 1.0 4.0 0.00 0.24 0.03 98 1015.7
20260905022557 55 178 0.0 4.0 0.00 0.24 0.03 98 1015.5
20260905022056 55 200 1.0 8.0 0.00 0.24 0.03 99 1015.2
20260905021600 55 244 1.0 11.0 0.00 0.24 0.03 99 1015.2
20260905021057 55 251 1.0 11.0 0.00 0.24 0.03 99 1015.0
20260905020559 55 203 2.0 11.0 0.00 0.24 0.03 99 1015.1
20260905020055 55 267 4.0 11.0 0.00 0.24 0.03 99 1014.6
20260905015554 55 234 2.0 7.0 0.00 0.24 0.03 99 1014.4
20260905015054 55 151 0.0 5.0 0.01 0.24 0.03 98 1014.0
20260905014556 55 217 1.0 7.0 0.01 0.24 0.03 98 1015.0
20260905014054 55 213 1.0 7.0 0.01 0.24 0.03 98 1014.9
20260905013556 55 238 0.0 4.0 0.01 0.24 0.03 98 1014.7
20260905013052 55 232 0.0 3.0 0.01 0.24 0.03 98 1014.3
20260905012552 55 279 0.0 4.0 0.01 0.24 0.03 98 1014.4
20260905012052 55 198 0.0 4.0 0.01 0.24 0.03 98 1013.7
20260905011557 55 135 0.0 7.0 0.01 0.24 0.03 98 1014.1
20260905011055 55 266 2.0 8.0 0.01 0.24 0.03 98 1014.7
20260905010553 55 269 2.0 8.0 0.01 0.24 0.03 98 1014.6
20260905010050 55 219 3.0 8.0 0.01 0.24 0.03 98 1014.9
20260905005552 55 267 2.0 6.0 0.01 0.24 0.03 98 1014.4
20260905005049 55 225 2.0 6.0 0.00 0.24 0.02 98 1014.4
20260905004549 55 273 0.0 4.0 0.00 0.24 0.02 98 1014.3
20260905004047 56 231 0.0 5.0 0.00 0.24 0.02 98 1014.2
20260905003547 56 261 1.0 7.0 0.00 0.24 0.02 99 1014.4
20260905003047 56 163 1.0 7.0 0.00 0.24 0.02 99 1014.8
20260905002548 56 283 2.0 7.0 0.00 0.24 0.02 99 1014.9
20260905002049 56 189 2.0 7.0 0.00 0.24 0.02 99 1014.9
20260905001545 56 216 1.0 9.0 0.00 0.24 0.02 99 1014.9
20260905001046 56 269 3.0 9.0 0.00 0.24 0.02 99 1014.7
20260905000545 56 159 3.0 11.0 0.00 0.24 0.02 99 1014.6
20260905000053 56 267 4.0 12.0 0.00 0.24 0.02 98 1014.2
20260904235541 56 229 2.0 12.0 0.00 0.24 0.02 99 1014.1
20260904235041 56 169 2.0 9.0 0.00 0.24 0.02 99 1014.2
20260904234540 56 246 2.0 9.0 0.00 0.24 0.02 98 1014.2
20260904234041 56 176 2.0 9.0 0.00 0.24 0.02 98 1014.3
20260904233539 56 134 1.0 6.0 0.00 0.24 0.02 98 1014.2
20260904233038 56 213 1.0 7.0 0.01 0.24 0.02 98 1014.1
20260904232537 56 192 1.0 5.0 0.02 0.24 0.02 98 1013.9
20260904232037 56 183 1.0 7.0 0.02 0.24 0.02 98 1013.5
20260904231536 56 241 2.0 7.0 0.02 0.24 0.02 98 1013.8
20260904231036 56 199 2.0 6.0 0.02 0.24 0.02 98 1013.9
20260904230535 57 205 1.0 8.0 0.02 0.24 0.02 98 1014.0
20260904230035 57 284 3.0 14.0 0.02 0.24 0.02 98 1013.6
20260904225534 57 235 4.0 17.0 0.03 0.24 0.02 98 1013.7
20260904225032 57 103 4.0 14.0 0.03 0.24 0.02 98 1013.3
20260904224533 57 247 5.0 14.0 0.04 0.24 0.02 98 1013.5
20260904224032 57 227 2.0 12.0 0.05 0.24 0.02 98 1013.5
20260904223530 57 292 2.0 12.0 0.06 0.24 0.02 98 1013.2
20260904223030 57 142 0.0 4.0 0.06 0.22 0.01 98 1013.3
20260904222529 57 103 0.0 1.0 0.07 0.22 0.01 98 1013.4
20260904222029 57 269 0.0 1.0 0.10 0.21 0.00 98 1013.4
20260904221529 57 211 0.0 6.0 0.13 0.21 0.00 98 1013.2
20260904221028 57 191 3.0 8.0 0.14 0.21 0.00 98 1013.2
20260904220527 57 238 1.0 8.0 0.14 0.21 0.00 98 1013.1
20260904220043 57 218 2.0 9.0 0.14 0.21 0.00 97 1013.2
20260904215525 57 234 2.0 9.0 0.13 0.20 0.20 97 1013.1
20260904215025 57 192 1.0 8.0 0.13 0.20 0.20 97 1012.7
20260904214526 57 255 0.0 8.0 0.13 0.20 0.20 97 1012.8
20260904214025 57 244 0.0 9.0 0.11 0.18 0.18 97 1013.0
20260904213528 57 155 0.0 8.0 0.10 0.17 0.17 97 1013.0
20260904213025 57 273 2.0 7.0 0.09 0.17 0.17 96 1012.9
20260904212527 57 202 0.0 9.0 0.08 0.15 0.15 96 1013.1
20260904212027 57 207 1.0 9.0 0.04 0.11 0.11 95 1012.8
20260904211524 57 191 0.0 0.0 0.01 0.08 0.08 95 1012.6
20260904211023 57 200 0.0 0.0 0.00 0.07 0.07 95 1012.7
20260904210523 57 207 0.0 1.0 0.00 0.07 0.07 95 1012.7
20260904210033 57 85 0.0 1.0 0.00 0.07 0.07 95 1012.4
20260904205523 57 104 0.0 0.0 0.00 0.07 0.07 95 1012.5
20260904205026 57 136 0.0 0.0 0.00 0.07 0.07 95 1012.8
20260904204522 56 85 0.0 0.0 0.00 0.07 0.07 95 1012.5
20260904204022 56 109 0.0 0.0 0.00 0.07 0.07 95 1012.3
20260904203526 56 84 0.0 1.0 0.00 0.07 0.07 95 1012.0
20260904203032 56 134 0.0 9.0 0.00 0.07 0.07 94 1011.8
20260904202521 57 101 1.0 9.0 0.00 0.07 0.07 95 1011.7
20260904202021 57 95 0.0 0.0 0.00 0.07 0.07 95 1012.1
20260904201521 57 207 0.0 4.0 0.00 0.07 0.07 94 1012.2
20260904201026 57 226 0.0 4.0 0.00 0.07 0.07 94 1012.0
20260904200520 57 91 0.0 1.0 0.00 0.07 0.07 94 1011.4
20260904200024 57 94 0.0 0.0 0.00 0.07 0.07 94 1011.7
20260904195522 57 69 0.0 5.0 0.00 0.07 0.07 94 1012.1
20260904195018 57 68 1.0 5.0 0.00 0.07 0.07 94 1012.1
20260904194541 57 99 1.0 7.0 0.00 0.07 0.07 94 1012.2
20260904194017 57 94 2.0 7.0 0.00 0.07 0.07 93 1012.3
20260904193519 57 171 0.0 4.0 0.00 0.07 0.07 94 1012.5
20260904193016 58 172 1.0 7.0 0.00 0.07 0.07 93 1012.2
20260904192515 58 123 2.0 7.0 0.01 0.07 0.07 93 1012.3
20260904192014 58 128 0.0 6.0 0.01 0.07 0.07 93 1012.8
20260904191522 58 103 1.0 6.0 0.01 0.07 0.07 93 1012.5
20260904191015 59 133 0.0 2.0 0.02 0.07 0.07 93 1013.2
20260904190514 59 133 0.0 3.0 0.02 0.07 0.07 93 1012.6
20260904190014 59 133 0.0 3.0 0.02 0.07 0.07 93 1012.6
20260904185517 59 134 0.0 3.0 0.02 0.07 0.07 92 1012.6
20260904185013 60 134 0.0 3.0 0.02 0.07 0.07 93 1012.6
20260904184513 60 129 0.0 3.0 0.06 0.07 0.07 94 1012.4
20260904184012 60 128 0.0 3.0 0.06 0.07 0.07 93 1012.5
20260904183512 60 129 0.0 3.0 0.06 0.07 0.07 93 1012.4
20260904183012 61 100 0.0 4.0 0.06 0.06 0.06 92 1012.3
20260904182515 61 97 0.0 5.0 0.06 0.06 0.06 92 1012.1
20260904182011 62 96 0.0 6.0 0.06 0.06 0.06 92 1011.9
20260904181511 62 91 1.0 9.0 0.06 0.06 0.06 92 1011.9
20260904181012 63 105 2.0 9.0 0.05 0.06 0.06 91 1011.7
20260904180514 64 69 2.0 6.0 0.05 0.06 0.06 89 1011.7
20260904180010 65 142 1.0 11.0 0.05 0.06 0.06 87 1011.8
20260904175510 67 101 3.0 11.0 0.05 0.06 0.06 85 1011.4
20260904175010 69 86 4.0 13.0 0.03 0.04 0.04 81 1011.6
20260904174509 72 74 3.0 13.0 0.00 0.01 0.01 76 1011.3
20260904174008 73 138 7.0 11.0 0.00 0.01 0.01 73 1010.4
20260904173507 73 193 2.0 9.0 0.00 0.01 0.01 73 1010.0
20260904173007 73 215 3.0 10.0 0.00 0.01 0.01 73 1010.0
20260904172507 73 252 2.0 12.0 0.00 0.01 0.01 73 1010.0
20260904172007 73 268 4.0 12.0 0.00 0.01 0.01 73 1009.9
20260904171506 73 282 4.0 11.0 0.00 0.01 0.01 73 1010.0
20260904171006 73 241 3.0 12.0 0.00 0.01 0.01 72 1010.0
20260904170506 74 244 5.0 12.0 0.00 0.01 0.01 72 1010.0
20260904170006 74 241 4.0 10.0 0.00 0.01 0.01 72 1010.1
20260904165506 74 178 3.0 11.0 0.00 0.01 0.01 72 1010.1
20260904165005 74 228 4.0 15.0 0.00 0.01 0.01 72 1010.1
20260904164507 74 209 4.0 15.0 0.00 0.01 0.01 73 1010.1
20260904164005 73 251 3.0 12.0 0.00 0.01 0.01 72 1010.1
20260904163502 74 257 3.0 11.0 0.00 0.01 0.01 73 1010.3
20260904163109 74 222 3.0 10.0 0.00 0.01 0.01 73 1010.3
20260904162502 73 227 4.0 10.0 0.00 0.01 0.01 73 1010.5
20260904162000 73 237 3.0 10.0 0.00 0.01 0.01 73 1010.5
20260904161600 74 273 4.0 12.0 0.00 0.01 0.01 73 1010.6
20260904161104 74 253 4.0 12.0 0.00 0.01 0.01 73 1010.6
20260904160603 74 264 4.0 11.0 0.00 0.01 0.01 74 1010.5
20260904155602 73 229 5.0 11.0 0.00 0.01 0.01 73 1010.6
20260904155101 74 222 5.0 14.0 0.00 0.01 0.01 73 1010.7
20260904154558 74 289 4.0 14.0 0.00 0.01 0.01 72 1010.8
20260904154102 74 241 5.0 14.0 0.00 0.01 0.01 72 1010.9
20260904153658 74 250 5.0 16.0 0.00 0.01 0.01 73 1010.8
20260904153105 74 313 7.0 16.0 0.00 0.01 0.01 72 1010.9
20260904152557 74 234 4.0 11.0 0.00 0.01 0.01 73 1010.7
20260904152056 74 244 5.0 14.0 0.00 0.01 0.01 73 1010.8
20260904151600 74 276 5.0 14.0 0.00 0.01 0.01 72 1010.8
20260904151056 74 265 6.0 13.0 0.00 0.01 0.01 72 1010.8
20260904150556 75 203 6.0 16.0 0.00 0.01 0.01 72 1010.9
20260904150056 75 286 7.0 16.0 0.00 0.01 0.01 72 1010.9
20260904145556 75 315 5.0 13.0 0.00 0.01 0.01 72 1010.8
20260904145055 75 259 5.0 18.0 0.00 0.01 0.01 71 1010.9
20260904144556 75 279 8.0 18.0 0.00 0.01 0.01 71 1011.0
20260904144054 75 246 7.0 15.0 0.00 0.01 0.01 71 1010.9
20260904143553 75 215 7.0 15.0 0.00 0.01 0.01 71 1011.0
20260904143052 75 233 3.0 14.0 0.00 0.01 0.01 75 1011.0
20260904142554 74 232 6.0 15.0 0.00 0.01 0.01 74 1011.1
20260904142050 74 189 3.0 13.0 0.00 0.01 0.01 75 1011.2
20260904141549 74 190 5.0 15.0 0.00 0.01 0.01 77 1011.1
20260904141049 73 228 3.0 15.0 0.00 0.01 0.01 76 1011.3
20260904140549 73 207 3.0 12.0 0.00 0.01 0.01 77 1011.2
20260904140051 73 203 5.0 15.0 0.00 0.01 0.01 75 1011.3
20260904135548 73 264 3.0 10.0 0.00 0.01 0.01 76 1011.4
20260904135047 74 187 3.0 12.0 0.00 0.01 0.01 77 1011.5
20260904134548 73 221 5.0 12.0 0.00 0.01 0.01 77 1011.6
20260904134050 72 148 3.0 14.0 0.00 0.01 0.01 79 1011.7
20260904133542 72 292 6.0 14.0 0.00 0.01 0.01 78 1011.7
20260904133041 72 255 3.0 11.0 0.00 0.01 0.01 79 1011.7
20260904132541 71 202 3.0 10.0 0.00 0.01 0.01 80 1012.0
20260904132040 71 255 4.0 12.0 0.00 0.01 0.01 80 1012.1
20260904131538 71 191 4.0 12.0 0.00 0.01 0.01 80 1012.1
20260904131037 71 215 3.0 12.0 0.00 0.01 0.01 81 1012.2
20260904130537 70 232 4.0 12.0 0.00 0.01 0.01 80 1012.2
20260904130036 70 188 3.0 12.0 0.00 0.01 0.01 84 1012.3
20260904125537 70 223 4.0 12.0 0.00 0.01 0.01 83 1012.3
20260904125034 69 191 2.0 6.0 0.00 0.01 0.01 84 1012.4
20260904124534 69 157 1.0 7.0 0.00 0.01 0.01 84 1012.5
20260904124031 69 237 1.0 8.0 0.00 0.01 0.01 84 1012.6
20260904123535 69 225 2.0 8.0 0.00 0.01 0.01 84 1012.7
20260904123030 69 180 2.0 6.0 0.00 0.01 0.01 84 1012.7
20260904122530 69 182 3.0 6.0 0.00 0.01 0.01 84 1012.9
20260904122030 69 177 2.0 9.0 0.00 0.01 0.01 84 1012.9
20260904121529 68 199 2.0 9.0 0.00 0.01 0.01 84 1013.1
20260904121034 68 178 3.0 9.0 0.00 0.01 0.01 84 1013.2
20260904120528 68 235 2.0 8.0 0.00 0.01 0.01 84 1013.2
20260904120027 68 191 2.0 10.0 0.00 0.01 0.01 84 1013.3
20260904115527 68 170 3.0 10.0 0.00 0.01 0.01 83 1013.3
20260904115027 68 208 2.0 9.0 0.00 0.01 0.01 83 1013.5
20260904114526 68 200 2.0 9.0 0.00 0.01 0.01 83 1013.6
20260904114026 68 212 2.0 9.0 0.00 0.01 0.01 83 1013.7
20260904113526 68 199 2.0 10.0 0.00 0.01 0.01 82 1013.6
20260904113025 69 221 5.0 11.0 0.00 0.01 0.01 81 1013.8
20260904112525 69 161 3.0 11.0 0.00 0.01 0.01 82 1013.7
20260904112028 69 211 4.0 10.0 0.00 0.01 0.01 81 1014.1
20260904111527 69 269 2.0 7.0 0.00 0.01 0.01 83 1013.9
20260904111024 69 224 3.0 8.0 0.00 0.01 0.01 82 1014.0
20260904110523 69 246 2.0 8.0 0.00 0.01 0.01 82 1014.1
20260904110035 69 301 2.0 9.0 0.00 0.01 0.01 83 1014.2
20260904105521 68 284 3.0 11.0 0.00 0.01 0.01 83 1014.2
20260904105020 68 275 5.0 11.0 0.00 0.01 0.01 82 1014.2
20260904104520 68 248 5.0 14.0 0.00 0.01 0.01 83 1014.3
20260904104018 68 275 5.0 14.0 0.00 0.01 0.01 83 1014.4
20260904103520 68 250 5.0 10.0 0.00 0.01 0.01 82 1014.4
20260904103018 68 186 4.0 12.0 0.00 0.01 0.01 83 1014.5
20260904102516 68 204 3.0 12.0 0.00 0.01 0.01 85 1014.4
20260904102015 67 180 4.0 11.0 0.00 0.01 0.01 84 1014.5
20260904101516 67 229 4.0 11.0 0.00 0.01 0.01 85 1014.6
20260904101013 66 236 3.0 10.0 0.00 0.01 0.01 87 1014.6
20260904100513 66 229 3.0 10.0 0.00 0.01 0.01 88 1014.8
20260904100010 65 282 3.0 10.0 0.00 0.01 0.01 88 1014.9
20260904095509 65 238 2.0 7.0 0.00 0.01 0.01 90 1015.0
20260904095007 65 234 3.0 6.0 0.00 0.01 0.01 90 1015.0
20260904094507 65 205 1.0 9.0 0.00 0.01 0.01 90 1015.0
20260904094007 65 201 4.0 9.0 0.00 0.01 0.01 91 1015.0
20260904093506 64 140 3.0 7.0 0.00 0.01 0.01 90 1015.1
20260904093004 65 196 3.0 8.0 0.00 0.01 0.01 91 1015.2
20260904092504 65 255 2.0 9.0 0.00 0.01 0.01 91 1015.3
20260904092004 64 298 3.0 10.0 0.00 0.01 0.01 91 1015.4
20260904091504 64 234 3.0 12.0 0.00 0.01 0.01 92 1015.5
20260904091001 64 212 4.0 12.0 0.00 0.01 0.01 93 1015.5
20260904090500 64 219 3.0 9.0 0.00 0.01 0.01 93 1015.4
20260904090101 63 248 4.0 9.0 0.00 0.01 0.01 93 1015.5
20260904085601 63 249 3.0 9.0 0.00 0.01 0.01 94 1015.7
20260904085059 63 223 3.0 9.0 0.00 0.01 0.01 94 1015.6
20260904084600 63 231 1.0 8.0 0.00 0.01 0.01 95 1015.6
20260904084100 63 246 3.0 13.0 0.00 0.01 0.01 96 1015.5
20260904083559 62 233 4.0 13.0 0.00 0.01 0.01 96 1015.6
20260904083054 62 250 5.0 10.0 0.00 0.01 0.01 97 1015.6
20260904082553 61 199 3.0 10.0 0.01 0.01 0.01 97 1015.7
20260904082053 61 248 4.0 8.0 0.01 0.01 0.01 98 1015.7
20260904081552 60 240 3.0 8.0 0.01 0.01 0.01 98 1015.8
20260904081152 60 311 3.0 8.0 0.01 0.01 0.01 97 1015.7
20260904080551 60 190 2.0 7.0 0.01 0.01 0.01 98 1015.9
20260904080056 60 227 0.0 6.0 0.01 0.01 0.01 97 1015.9
20260904075551 60 225 2.0 6.0 0.01 0.01 0.01 97 1015.9
20260904075050 60 250 1.0 4.0 0.01 0.01 0.01 97 1015.9
20260904074554 60 264 1.0 4.0 0.01 0.01 0.01 97 1016.0
20260904074048 60 180 1.0 6.0 0.01 0.01 0.01 97 1016.1
20260904073547 60 186 1.0 6.0 0.01 0.01 0.01 96 1016.1
20260904073047 60 185 1.0 7.0 0.01 0.01 0.01 96 1016.3
20260904072546 60 232 1.0 8.0 0.00 0.00 0.00 95 1016.2
20260904072050 60 259 3.0 7.0 0.00 0.00 0.00 95 1016.4
20260904071548 61 242 2.0 6.0 0.00 0.00 0.00 94 1016.3
20260904071046 61 269 2.0 7.0 0.00 0.00 0.00 94 1016.3
20260904070548 61 295 0.0 5.0 0.00 0.00 0.00 93 1016.4